Theta_e
321 319 320 323 323 322 320 321 321 321 321 321 320 320 320 320 320 321 322 323 323 324 325 325 326 327 327 328 329 330 330 326 325 323 321 324 330 338 338 336 339 338 337 329 327 327 323 323 319 324 321 320 319 315 324 319 322 320 309 305 302 305 304 310 309 310 310 304 304 307 307 307 305 307 309 311 309 308 308 308 311 315 319 323 324 330 329 328
320 321 320 323 323 322 321 320 320 321 321 321 320 320 320 320 320 320 321 322 322 323 324 325 325 326 327 327 328 329 327 325 321 321 321 332 335 335 335 337 336 338 335 326 325 323 322 319 318 321 319 314 328 315 321 319 319 311 308 307 302 306 309 313 313 312 310 305 307 308 310 307 307 308 308 305 305 305 305 307 309 310 319 321 325 328 327 326
319 319 320 320 323 323 321 321 320 321 321 321 321 320 320 320 320 320 321 322 322 323 323 324 325 325 326 327 327 329 325 320 319 315 322 334 336 336 335 336 336 336 331 325 325 323 320 321 320 320 319 315 315 312 316 314 315 312 308 304 306 311 312 313 313 311 311 311 308 306 307 307 309 310 310 306 305 306 304 304 305 308 314 318 322 325 326 325
318 319 320 320 321 322 322 321 320 320 321 320 320 320 321 320 320 320 320 321 322 323 323 323 324 325 326 327 328 327 323 317 309 316 325 334 336 336 335 335 336 336 331 329 330 325 324 324 322 319 318 314 315 315 311 315 312 312 308 305 309 312 309 313 314 313 310 311 311 308 308 307 308 310 309 308 304 304 306 308 308 307 311 318 320 323 325 325
316 319 319 319 319 320 322 321 321 320 320 320 320 320 321 321 320 320 320 320 322 322 323 323 323 324 325 327 326 325 318 305 308 321 326 337 336 337 335 334 335 331 328 327 328 329 329 327 322 318 316 311 314 313 311 314 315 315 309 311 312 312 310 315 314 312 310 310 310 310 308 310 309 309 308 307 303 302 306 309 310 312 317 320 320 323 325 324
315 318 319 319 319 319 321 322 320 320 321 320 320 320 320 321 321 320 319 320 321 322 322 323 323 324 325 326 326 322 314 293 315 320 329 333 335 337 335 334 334 330 327 325 324 324 324 323 319 312 311 311 311 309 311 312 316 306 310 311 312 313 311 314 314 311 312 312 311 310 310 309 310 310 310 307 306 307 310 310 310 311 322 323 323 324 323 324
315 316 318 318 318 319 320 320 320 321 321 320 319 320 319 320 320 320 319 320 321 322 322 323 323 324 324 325 324 318 310 311 320 326 332 331 329 336 335 334 333 329 327 323 323 321 319 318 314 310 310 310 311 311 314 312 314 311 307 311 311 314 312 315 311 313 312 311 311 309 311 309 310 306 312 309 310 311 313 311 312 312 317 324 323 323 322 324
314 314 317 318 318 318 318 321 320 319 319 319 320 319 319 319 320 320 320 320 321 322 322 322 323 323 324 320 313 308 308 308 319 329 330 329 328 334 334 330 328 326 324 322 321 318 318 313 309 312 308 306 310 311 314 313 313 309 308 311 312 313 313 314 311 312 313 312 311 312 309 309 311 311 309 307 310 313 313 311 312 312 314 315 322 322 322 322
314 314 315 317 318 318 318 319 319 318 319 319 320 320 319 319 319 320 320 320 321 321 322 323 323 323 322 317 310 305 304 316 322 325 326 330 329 332 331 325 326 323 322 323 321 318 316 312 311 311 305 307 312 309 312 311 307 311 311 311 311 312 314 313 312 312 311 312 312 310 309 311 313 311 309 310 313 315 317 316 312 313 312 313 313 319 319 320
313 314 314 315 317 318 318 319 319 320 319 319 319 319 319 319 319 320 320 320 320 321 322 322 324 323 318 312 308 298 313 326 323 322 325 329 330 330 328 326 324 322 319 320 320 316 313 314 311 314 311 309 311 307 311 311 308 314 311 311 311 312 312 312 311 312 312 311 312 309 309 310 312 310 305 314 316 317 317 316 313 313 312 311 312 314 318 318
313 313 314 314 316 318 318 318 319 320 319 318 319 319 319 319 319 320 320 320 320 320 321 322 324 321 312 313 303 298 323 321 325 326 327 329 328 325 324 325 324 320 319 320 318 318 317 315 315 315 312 305 311 306 309 311 315 313 312 311 311 312 313 312 312 311 311 310 312 311 309 310 311 308 307 312 315 313 314 314 314 313 312 312 312 312 316 318
312 313 313 314 314 317 318 318 318 319 319 319 319 319 319 319 319 319 320 319 319 319 320 322 323 320 315 308 304 304 323 324 324 328 331 328 325 326 326 326 323 321 320 318 318 320 321 319 319 314 303 312 303 308 307 312 312 312 312 306 308 309 309 312 310 310 311 309 311 312 307 305 307 305 308 311 314 313 312 312 313 312 313 314 313 311 314 316
311 312 313 313 313 314 318 318 318 318 318 318 319 318 318 319 318 318 319 318 319 319 320 321 321 318 311 300 306 316 324 326 326 327 328 324 327 326 327 326 323 322 322 320 320 322 325 324 322 316 315 310 306 301 309 312 311 311 309 306 305 305 304 309 311 310 309 311 312 309 296 300 305 308 311 312 312 313 313 311 312 313 313 313 314 313 311 316
312 312 312 313 313 315 316 318 318 318 318 318 317 319 318 318 318 319 318 318 319 318 320 321 320 315 308 301 313 319 320 322 324 326 326 324 324 325 326 325 325 323 324 321 322 324 325 325 325 319 317 309 306 311 308 308 309 303 306 306 300 298 298 308 309 310 307 311 311 310 297 301 306 309 312 313 313 311 310 311 312 313 314 313 314 314 313 314
312 311 312 312 313 314 315 317 317 317 318 317 317 318 317 317 316 318 318 318 318 318 319 321 318 310 302 303 316 320 325 326 318 320 325 322 322 320 322 325 323 323 322 321 320 325 325 325 322 315 309 314 311 308 302 302 304 304 299 295 299 297 298 304 310 309 305 309 312 307 298 300 306 309 312 313 312 311 310 310 311 313 313 314 314 314 314 315
311 312 312 312 313 313 314 317 317 317 318 317 318 317 317 317 317 317 317 318 318 318 318 313 311 308 302 296 306 325 318 314 314 320 326 325 322 319 322 322 323 323 321 319 321 321 323 323 314 314 312 309 305 302 300 298 298 302 298 295 295 298 298 299 305 309 310 308 309 306 298 303 304 310 313 312 312 311 310 311 311 313 313 313 313 313 313 314
310 311 312 312 312 313 313 316 317 316 316 317 317 317 317 317 317 317 316 317 316 317 313 305 309 310 293 309 318 310 308 314 321 319 320 325 323 322 321 319 318 319 320 319 319 320 318 313 315 311 313 304 303 303 295 293 293 296 299 295 297 296 298 296 303 306 308 308 303 306 302 302 305 308 311 312 312 311 310 310 311 312 311 312 313 313 313 313
310 311 312 312 312 312 312 314 316 317 318 317 317 316 315 317 317 315 314 314 312 314 313 315 311 303 297 307 299 305 312 313 314 316 318 322 324 321 321 317 319 317 315 313 316 310 313 307 309 300 304 303 302 298 292 288 292 293 295 294 294 296 297 298 297 302 305 307 304 302 301 302 305 308 309 310 312 311 310 310 310 311 312 312 313 313 313 313
311 311 312 312 312 312 312 315 315 317 318 317 317 317 317 317 315 312 307 306 302 296 293 296 299 287 286 297 304 309 311 315 316 314 313 318 321 321 320 320 318 312 307 307 307 308 309 306 305 298 294 297 298 298 295 296 297 296 297 296 296 293 294 295 300 307 307 303 302 302 300 302 304 306 308 309 310 310 311 311 311 311 311 311 311 312 311 312
311 311 311 312 312 312 312 314 315 315 316 313 313 310 308 301 300 298 305 305 299 296 296 299 302 300 305 306 304 308 325 318 310 311 315 321 318 316 314 315 312 312 306 300 304 305 307 297 295 294 295 297 300 301 299 299 299 298 298 297 297 296 296 299 300 303 308 303 302 303 303 303 304 305 307 309 309 309 309 309 309 310 310 311 311 311 312 312
310 311 311 312 311 312 312 313 315 315 315 313 310 304 296 296 291 288 297 300 302 301 299 301 302 301 301 308 310 308 306 309 312 309 315 322 318 313 307 309 305 301 303 305 302 306 305 295 295 298 299 300 300 301 301 300 300 297 295 295 294 297 295 300 299 304 307 302 299 302 302 302 304 306 307 307 307 306 307 307 308 309 309 310 310 311 311 312
311 310 311 312 312 312 313 312 314 315 315 313 309 302 303 303 305 308 302 292 300 302 301 303 304 301 310 310 313 316 313 305 307 309 318 318 312 305 305 305 302 298 304 304 302 299 296 293 297 300 302 302 301 301 301 300 298 298 295 294 293 294 299 301 302 301 305 303 298 300 299 300 302 304 306 306 306 306 307 308 308 308 308 309 310 310 311 311
311 311 311 312 312 312 312 313 313 315 312 306 304 305 303 307 311 310 304 298 294 301 300 300 301 300 301 311 309 315 305 301 299 306 312 315 308 306 305 302 300 301 302 301 295 295 292 295 300 302 302 300 299 300 299 298 298 296 295 293 291 297 295 290 298 301 302 301 299 299 299 300 302 303 303 304 304 305 307 309 309 309 308 309 309 310 310 310
311 311 311 312 313 312 312 312 313 311 308 307 306 306 310 311 310 308 301 292 290 296 299 301 303 303 301 301 310 309 303 302 304 303 315 312 305 308 305 302 299 300 298 300 299 296 294 299 304 302 301 300 298 299 298 296 294 297 297 295 294 295 295 294 295 299 302 301 302 299 297 297 299 298 299 301 302 302 304 305 306 308 309 310 310 309 309 309
311 311 311 312 312 312 312 312 307 305 308 307 305 310 311 310 310 308 298 293 293 292 303 301 305 305 306 316 313 304 305 307 305 309 312 311 307 304 301 307 302 296 299 300 300 298 298 301 303 300 299 299 298 296 297 297 293 295 297 298 298 298 296 296 298 296 294 294 300 299 289 290 296 298 299 301 300 300 302 302 303 304 305 307 307 307 308 309
310 312 311 312 312 312 313 303 303 308 306 302 306 310 310 309 310 308 298 285 281 290 297 288 304 296 313 304 308 305 306 297 308 310 314 314 314 306 304 300 303 295 299 300 298 298 299 303 301 299 298 297 297 296 298 299 294 292 294 300 299 298 298 297 296 295 287 284 295 300 289 285 292 293 295 296 298 299 301 301 302 303 303 304 305 306 307 307
310 311 311 312 312 312 303 296 306 306 299 301 309 309 310 309 310 307 292 281 278 291 286 297 296 295 307 304 304 303 287 291 310 313 312 315 308 313 300 297 301 303 304 303 297 293 300 300 299 300 298 297 296 294 299 299 295 292 300 300 299 297 296 296 297 294 291 297 298 297 295 288 288 295 299 300 299 299 298 300 302 303 304 305 306 307 307 308
310 310 311 311 312 311 304 306 303 300 301 306 311 309 308 309 311 305 290 273 271 295 287 293 296 310 304 304 305 295 295 306 297 304 314 315 312 304 303 297 298 299 302 300 287 304 300 297 298 297 297 296 295 298 301 302 297 296 301 303 299 298 297 297 296 293 294 292 287 292 295 288 287 293 299 300 297 298 299 300 301 303 305 307 308 309 309 310
309 310 311 311 312 312 309 305 304 300 306 311 311 310 310 309 305 292 280 272 286 289 308 291 312 302 301 304 299 298 297 305 293 304 309 309 312 306 298 301 301 300 303 301 294 299 303 301 300 300 297 294 299 301 302 301 296 300 304 306 303 302 300 298 294 292 292 288 285 290 294 286 287 292 294 297 296 296 297 299 301 302 303 305 308 310 311 311
308 309 309 311 310 308 305 307 304 307 311 312 310 310 309 304 294 280 276 268 292 278 294 295 294 291 299 294 294 297 294 298 302 306 306 303 305 307 306 311 302 299 297 301 298 299 304 304 306 301 298 299 300 301 303 301 300 302 302 300 298 299 297 295 294 291 288 285 287 292 294 291 283 289 291 291 295 297 298 300 301 303 303 304 307 310 312 313
309 309 310 311 303 303 305 299 303 310 312 311 310 308 303 295 282 276 271 277 290 287 296 292 288 299 294 290 288 295 294 296 299 303 298 303 300 303 302 299 303 297 295 296 295 298 301 303 300 302 307 304 303 300 303 303 303 300 296 295 296 291 292 290 289 291 285 283 289 293 293 293 283 286 292 297 298 299 300 299 301 302 302 304 304 307 309 310
308 308 308 307 306 309 301 298 305 310 310 310 307 300 294 278 283 274 273 295 277 284 287 286 292 292 292 293 291 291 290 294 298 298 295 295 295 293 295 290 294 286 286 288 288 297 295 296 302 305 308 304 300 298 299 301 301 299 296 295 288 284 286 282 285 282 283 282 286 292 293 289 288 292 294 297 298 299 301 304 302 302 303 304 305 306 307 308
307 308 309 308 308 304 305 308 310 309 310 308 301 297 285 278 271 280 281 285 277 291 286 292 289 290 292 290 288 292 295 288 297 297 298 297 294 294 298 296 297 292 282 290 288 290 291 298 299 300 301 305 302 294 292 293 297 296 293 290 286 282 281 278 282 284 284 287 290 289 293 287 291 294 298 298 300 301 302 303 304 303 302 304 306 307 309 310
306 307 305 306 307 306 308 310 310 311 307 303 295 288 284 276 274 287 282 283 282 293 292 289 291 291 291 285 288 292 287 293 294 294 295 289 291 288 293 296 297 293 291 290 285 287 283 285 292 297 292 303 301 299 298 295 296 296 298 294 288 287 282 278 281 278 280 283 286 291 285 281 285 289 297 299 301 302 304 304 303 303 307 307 306 307 309 311
307 305 305 305 305 306 306 309 310 309 304 297 289 284 276 276 282 278 280 283 287 291 289 293 289 288 287 288 291 293 292 286 294 293 291 290 287 288 288 291 296 297 293 286 288 287 286 287 296 301 300 303 299 303 303 300 295 297 298 298 290 287 290 284 284 284 284 283 283 285 285 288 290 296 297 299 298 300 301 302 301 302 304 305 305 305 306 309
305 302 305 302 302 305 307 308 308 306 300 292 284 279 277 281 278 284 282 293 291 287 289 290 289 286 285 285 290 290 295 289 291 291 288 289 290 288 293 294 294 296 292 286 290 283 287 284 298 299 303 301 301 303 302 302 287 293 295 288 292 297 293 286 286 286 286 284 282 287 288 291 296 298 299 299 299 298 299 301 301 301 303 304 305 305 304 306
300 302 297 301 302 306 308 309 308 303 298 289 283 278 283 283 288 287 291 290 291 292 289 282 283 284 282 282 284 287 289 292 290 289 285 290 286 291 289 293 299 297 297 294 287 293 284 286 297 296 295 301 304 304 303 303 301 296 289 293 297 297 297 289 282 284 283 280 282 288 285 287 286 284 297 297 297 298 298 299 301 301 302 303 303 304 305 306
299 298 298 299 302 305 308 308 306 299 293 287 281 284 286 284 292 290 292 292 293 292 286 284 285 289 282 283 283 286 290 285 286 288 284 290 284 296 291 290 298 298 298 300 290 290 293 283 290 297 297 300 303 301 297 301 302 297 294 302 292 285 284 287 285 279 279 279 281 284 286 287 289 289 291 292 295 296 298 299 299 299 301 302 303 305 305 305
299 296 289 298 305 307 308 308 302 295 289 283 282 282 284 287 293 291 292 294 295 291 285 287 284 287 287 284 285 288 289 282 288 285 283 287 283 293 292 295 293 299 300 299 293 291 294 282 286 297 297 298 299 297 287 293 300 301 299 296 296 290 286 286 286 287 286 280 281 281 284 282 291 292 294 294 294 296 297 298 299 300 302 303 304 304 305 304
295 290 289 301 306 307 307 304 296 291 285 280 283 284 288 283 290 293 293 294 290 290 286 287 287 285 287 287 288 284 289 288 287 285 286 288 286 296 292 297 294 296 299 300 295 297 286 291 281 289 297 297 288 294 291 293 290 291 292 289 292 289 294 292 290 287 284 282 282 281 280 284 291 296 295 296 297 296 299 299 300 301 302 302 302 302 302 303
297 291 290 303 305 307 305 298 289 284 283 287 287 285 285 285 290 291 294 296 295 298 293 290 288 285 287 286 286 289 287 288 288 286 286 286 288 284 295 295 296 294 298 298 295 295 287 286 283 287 287 287 292 297 295 296 297 294 293 291 292 289 285 284 281 290 286 284 281 282 280 285 294 298 297 296 296 299 300 299 300 300 301 301 301 301 301 301
290 283 288 303 304 304 297 285 285 286 285 284 283 285 284 291 287 290 292 294 297 291 297 294 292 290 287 287 288 288 287 286 287 287 287 285 291 290 294 299 297 298 295 290 292 297 294 289 286 284 285 288 294 291 293 293 294 296 296 292 296 293 290 286 282 283 286 287 288 285 283 284 294 295 296 297 297 298 298 299 299 299 299 300 300 301 300 300
289 286 298 303 305 301 293 285 287 285 284 286 292 290 291 290 288 291 291 293 292 296 291 289 291 289 290 289 288 287 289 285 287 285 288 288 290 293 297 298 298 297 297 292 295 294 293 282 283 284 288 291 291 287 286 286 287 289 291 292 294 289 291 289 287 287 285 286 284 284 282 287 295 296 296 294 294 296 298 298 298 299 299 300 300 300 300 300
290 287 291 302 305 300 288 280 280 283 285 286 287 286 290 290 288 289 290 291 292 291 291 291 292 294 290 292 290 287 290 282 288 288 286 290 288 297 297 298 299 294 295 291 291 295 287 285 285 281 280 283 285 288 287 289 288 285 287 291 293 294 294 291 289 285 284 286 287 284 279 286 295 295 297 296 296 297 297 298 299 299 299 299 300 300 301 301
288 287 291 295 301 297 285 286 284 284 284 284 285 283 284 288 292 292 292 290 293 292 292 290 293 292 290 292 290 291 291 288 283 290 289 289 289 296 297 299 299 294 297 298 296 298 288 285 285 279 277 276 275 277 279 282 284 285 288 290 293 292 292 288 285 286 283 287 288 285 285 291 292 293 295 295 294 295 296 298 299 299 299 300 300 300 300 301
285 282 285 289 293 292 288 286 286 286 285 284 283 285 286 285 291 294 294 290 294 292 292 293 293 294 288 290 288 287 288 291 287 284 288 286 290 292 296 297 297 296 297 297 297 295 285 285 286 284 282 280 283 284 288 289 284 282 282 288 290 293 294 293 288 286 283 287 287 288 289 290 291 292 293 294 292 295 295 295 296 297 297 297 299 301 301 301
291 284 282 279 286 288 286 287 285 287 284 288 282 285 283 286 288 290 296 284 293 291 290 292 291 289 288 289 286 286 289 286 290 289 287 287 287 290 294 294 297 297 296 295 297 292 285 284 285 283 285 285 287 286 288 289 284 283 285 285 289 290 291 289 286 283 289 286 282 291 292 289 291 293 293 295 296 296 296 296 296 296 296 297 299 300 299 300
284 284 285 286 283 280 282 283 286 286 289 288 283 287 284 285 285 284 290 292 292 294 288 290 287 290 291 289 289 284 286 284 284 282 289 288 287 289 286 291 292 294 295 293 295 290 285 283 284 284 284 286 287 287 289 289 288 287 287 285 285 288 288 286 286 289 289 285 284 287 285 288 292 295 296 296 297 297 296 297 298 299 298 297 298 299 300 300
289 287 286 288 284 286 287 287 288 287 286 287 285 286 284 284 283 287 287 287 289 289 291 284 286 289 291 291 289 285 287 282 282 284 285 285 286 284 283 285 289 294 293 291 294 290 286 283 283 282 282 284 285 286 287 285 284 284 284 286 287 286 287 287 287 288 288 287 289 289 288 289 293 294 295 296 297 298 297 298 298 297 298 297 298 298 299 299
285 285 283 288 288 287 287 287 287 286 284 287 284 285 286 285 283 287 289 287 284 287 292 287 288 289 289 290 289 286 288 288 287 284 289 288 284 286 284 286 284 291 293 287 288 292 288 284 289 283 281 282 284 286 287 286 285 284 285 286 287 286 286 287 287 287 285 285 287 287 287 287 293 296 296 299 299 300 300 299 299 298 298 297 298 299 298 297
291 291 292 286 285 286 288 287 286 285 284 285 284 286 286 286 285 289 288 292 289 287 289 287 290 289 290 289 287 288 291 291 291 291 290 290 285 290 286 285 292 286 288 287 286 283 287 284 285 283 281 281 284 284 284 285 285 284 284 284 284 285 284 285 285 287 286 284 285 285 285 286 292 295 296 297 297 297 297 298 299 298 296 297 297 298 297 296
290 294 296 292 285 289 286 288 287 286 282 286 286 286 286 286 288 290 285 290 292 293 292 290 290 289 287 288 287 289 292 293 294 295 294 293 293 293 292 292 291 289 287 288 290 285 286 284 282 283 280 280 284 283 281 281 281 280 282 285 287 287 288 289 290 290 290 290 286 284 285 292 294 295 293 295 296 296 297 298 298 299 298 298 299 298 297 297
Wind_Speed
17 19 19 17 17 18 21 21 20 20 20 17 17 16 15 13 12 11 8 7 6 5 6 7 7 7 7 6 7 8 6 7 8 11 13 11 10 1 4 3 6 5 3 5 7 7 7 7 9 9 5 3 2 4 2 2 1 2 2 2 4 4 5 2 2 1 3 5 3 3 3 3 6 3 2 1 1 1 4 1 4 4 6 8 7 8 9 9
18 17 19 18 18 19 20 23 21 20 20 19 17 17 15 14 13 11 10 8 6 6 5 6 7 7 6 6 6 7 7 7 12 14 17 8 15 11 4 2 2 4 2 5 8 7 7 8 9 7 6 5 2 3 3 1 3 3 2 3 5 3 4 6 0 8 4 5 4 3 0 1 5 6 2 2 4 4 3 3 4 4 7 6 6 9 10 9
20 19 19 20 19 18 19 24 22 20 20 19 19 17 16 14 13 12 10 8 7 5 4 5 6 6 6 5 5 4 4 8 10 17 15 17 16 15 12 5 4 3 3 7 7 10 9 6 5 6 4 6 5 4 4 2 4 4 3 4 5 5 5 7 6 6 5 3 6 4 2 1 3 1 2 2 2 7 6 5 4 5 8 8 8 8 9 8
20 19 19 19 20 18 19 21 21 21 19 19 20 18 15 13 13 12 11 9 8 6 4 4 4 5 5 5 3 3 4 6 12 7 8 17 18 17 14 10 7 5 6 9 11 9 9 9 9 8 4 7 4 6 5 3 3 4 5 6 4 2 4 2 4 3 4 5 3 4 2 1 3 1 2 2 2 3 5 5 6 7 9 11 11 10 9 9
21 20 20 19 19 21 19 19 21 23 20 20 20 19 15 13 13 13 11 10 8 7 5 4 4 4 5 4 2 1 4 3 4 7 3 6 16 18 16 14 10 8 8 8 9 10 9 9 8 6 5 5 6 5 7 4 5 2 6 7 8 6 6 2 8 7 4 4 3 4 2 0 4 1 1 3 3 1 3 6 8 6 4 14 11 8 7 9
21 21 20 19 18 21 20 19 21 21 19 20 20 19 17 14 14 13 12 11 10 8 7 5 4 4 3 1 2 1 4 8 2 3 7 5 4 19 19 16 14 8 7 9 9 7 7 7 9 6 6 6 7 9 5 7 6 6 5 6 4 6 6 3 5 3 1 1 2 2 2 3 1 1 4 4 5 3 4 4 7 6 7 12 11 9 8 9
21 21 20 20 19 18 20 19 21 23 21 23 20 19 19 17 15 13 13 12 11 9 7 6 4 3 2 2 2 4 9 7 4 2 2 5 5 11 17 14 10 6 8 9 10 7 9 6 7 6 6 8 9 8 9 7 9 8 6 5 8 10 5 1 6 1 1 3 2 3 0 2 1 4 0 4 3 4 3 4 4 4 6 10 10 9 10 10
22 21 20 19 18 17 20 18 19 21 22 22 20 20 20 19 16 14 13 13 11 10 8 7 6 4 6 4 4 7 11 13 15 4 5 1 3 6 13 9 9 7 8 11 10 10 6 11 9 5 7 8 5 9 8 11 9 10 9 5 6 7 5 3 5 0 0 2 2 2 3 3 3 3 2 2 3 2 2 5 4 4 4 4 8 8 8 8
21 22 21 19 17 17 18 18 20 20 22 20 16 17 20 20 17 14 13 13 12 11 9 8 7 5 5 2 7 8 15 10 11 9 10 6 2 9 12 9 11 10 8 8 11 8 8 9 10 9 5 8 6 10 9 9 10 9 9 5 8 8 1 4 2 3 3 2 3 2 3 4 5 5 2 4 6 4 2 1 6 4 3 4 4 7 7 7
21 21 22 21 18 18 18 18 20 20 22 20 16 18 20 21 17 15 14 14 13 12 10 8 7 9 7 5 4 13 1 2 10 11 6 3 3 9 12 10 12 11 10 9 7 10 11 4 8 5 9 7 6 10 6 13 6 5 9 6 9 11 6 6 6 5 5 4 3 4 4 5 3 5 4 5 9 9 9 5 4 5 4 5 5 5 6 6
21 21 22 20 19 17 18 19 20 20 22 22 19 20 21 20 18 16 14 14 14 12 11 9 8 8 7 7 8 14 4 6 3 0 5 7 5 8 12 11 12 10 9 6 9 8 6 9 4 4 4 6 2 8 8 6 6 12 6 6 12 12 12 6 10 8 3 4 4 4 6 5 4 4 7 3 1 4 1 3 4 4 4 4 5 6 6 6
23 22 21 20 20 18 17 19 20 20 21 22 21 22 21 20 18 17 15 14 14 13 11 10 11 4 6 8 11 9 4 4 2 1 2 8 7 6 8 9 11 11 9 7 8 6 5 5 4 4 4 3 9 4 8 10 7 8 10 7 7 7 10 11 10 6 5 5 4 4 5 8 6 10 5 6 9 3 4 4 4 5 6 5 5 5 6 7
25 23 21 21 21 20 18 19 21 22 21 23 24 21 18 19 18 18 16 14 14 13 12 10 7 5 6 11 12 8 5 3 4 1 2 5 1 4 7 7 10 10 9 8 5 5 4 1 5 4 6 6 4 6 4 3 6 4 5 6 7 8 10 9 3 5 6 5 5 6 6 7 10 11 7 10 12 12 9 6 5 4 4 4 5 4 5 7
24 23 23 22 21 20 19 19 20 22 22 23 24 20 20 18 18 18 17 15 13 13 12 11 5 5 7 9 1 5 13 6 5 4 4 2 1 1 5 4 5 8 6 7 5 2 5 3 3 4 5 6 2 5 4 2 4 7 4 3 7 6 9 7 8 9 11 6 8 7 9 9 5 7 13 15 13 11 10 10 8 7 5 4 5 5 5 6
24 25 23 23 22 19 21 20 21 23 22 23 23 17 17 19 20 18 17 14 14 12 12 8 4 4 8 8 4 8 8 2 11 7 3 5 3 1 2 1 4 5 7 8 5 2 5 4 3 2 3 4 8 3 2 4 5 5 5 11 7 9 3 7 9 12 12 6 11 8 9 10 7 6 6 5 7 7 8 7 8 9 7 7 5 6 6 6
26 26 24 23 21 19 21 19 21 23 21 22 21 19 19 18 19 17 17 12 13 13 8 8 7 6 5 9 3 10 5 11 12 9 5 6 5 3 3 3 1 5 5 6 4 2 3 1 3 2 3 5 6 3 4 3 5 7 10 5 8 7 6 7 8 7 14 6 11 13 4 2 5 9 10 6 8 9 8 7 7 7 8 7 6 5 5 5
27 26 24 23 21 21 21 21 21 23 22 23 21 18 16 16 18 18 16 15 8 6 7 4 7 5 7 1 3 9 8 11 5 9 9 7 6 4 4 3 2 5 5 4 5 1 4 4 1 2 3 5 5 4 4 9 9 8 7 8 5 7 6 8 3 9 8 12 7 10 10 9 5 6 2 6 6 6 5 5 6 6 5 5 5 5 5 5
28 27 25 24 22 22 23 22 22 23 22 22 20 17 18 19 18 15 12 10 5 4 5 3 2 5 11 11 8 8 9 8 10 8 10 8 8 5 3 5 2 2 3 6 2 7 5 5 5 5 4 6 8 9 11 15 12 8 8 8 9 8 9 5 5 7 11 11 8 10 13 11 9 10 10 4 3 5 6 6 6 7 7 7 7 6 6 5
28 28 26 25 23 23 24 22 23 22 22 22 23 19 18 17 8 3 8 7 8 6 7 9 10 12 5 11 18 8 8 8 8 9 10 12 8 8 5 4 3 10 7 7 5 8 7 3 5 6 11 12 13 14 14 5 5 11 10 7 6 8 9 10 5 3 8 9 11 12 11 10 11 12 8 10 7 8 10 9 8 7 6 6 6 5 5 5
28 29 28 25 24 22 24 24 23 23 25 16 15 12 9 7 7 7 8 9 11 13 9 16 18 10 3 6 11 12 1 10 8 10 8 9 9 10 8 5 3 8 10 10 9 10 6 8 12 13 13 13 13 12 11 9 9 7 7 7 9 9 8 7 8 4 10 6 10 10 11 11 10 9 10 11 12 13 10 9 7 7 8 7 6 7 6 7
30 29 28 26 26 21 24 25 24 24 26 15 14 11 6 12 11 7 13 13 15 16 9 7 13 14 2 4 2 17 7 5 6 10 10 7 8 11 7 6 7 10 11 12 11 4 7 8 13 15 15 14 15 13 11 11 13 11 7 8 10 8 8 6 7 5 9 5 4 7 9 11 11 9 9 7 8 10 10 11 12 12 8 8 9 10 10 9
30 29 28 26 23 21 23 26 24 23 24 12 12 12 3 15 6 1 10 10 12 12 12 6 13 13 3 3 4 2 5 6 9 8 8 13 11 12 7 10 8 9 7 7 8 8 9 14 15 15 12 10 10 13 12 12 11 10 10 7 6 6 4 5 8 7 9 6 6 2 7 8 8 9 10 12 12 9 9 10 10 9 10 9 9 10 10 9
31 29 29 26 22 24 25 26 24 23 14 14 13 15 12 11 3 7 8 4 8 12 12 9 9 15 14 2 3 1 6 8 10 10 11 11 11 12 10 10 11 9 11 11 14 11 12 12 14 10 11 12 11 11 13 11 10 9 9 9 8 1 2 4 6 3 5 5 2 4 9 10 10 12 14 11 10 9 9 13 13 11 12 12 12 10 9 10
31 30 29 26 23 24 24 25 25 17 15 14 13 18 8 13 5 9 11 7 5 13 14 12 7 8 11 8 5 3 8 6 7 12 9 12 12 8 7 13 12 10 12 13 15 16 17 13 13 9 11 13 13 12 12 10 11 10 8 6 8 5 4 5 1 5 8 6 2 1 7 11 10 11 12 11 11 12 14 14 14 13 12 12 10 10 10 11
29 28 28 25 24 25 24 24 16 14 12 15 15 12 8 14 8 9 8 4 6 6 12 7 5 3 3 3 7 6 5 2 5 6 11 11 10 9 9 4 6 11 9 12 11 11 11 3 14 17 16 14 12 12 12 9 9 8 10 9 5 4 6 5 3 5 1 3 2 1 5 11 7 14 18 13 12 16 14 16 17 17 14 12 13 13 11 10
27 26 26 25 22 24 23 15 15 13 17 17 13 11 12 16 9 5 4 1 5 5 12 14 6 9 5 6 5 4 6 6 6 3 11 10 9 8 5 7 4 11 12 12 10 5 8 8 13 15 12 11 13 12 12 12 9 8 9 11 11 8 5 5 4 3 5 4 2 8 8 10 4 6 4 5 9 13 10 15 16 13 12 12 12 11 11 12
26 26 26 26 24 24 13 9 9 12 14 12 10 11 9 14 10 6 4 2 5 8 12 7 13 3 7 8 8 6 9 5 5 6 13 11 13 6 8 9 6 3 5 3 2 7 5 11 10 11 12 12 13 14 12 14 9 10 4 11 12 12 11 8 4 4 3 1 4 5 4 10 12 11 7 11 14 10 7 12 14 12 12 12 12 11 11 11
25 26 25 25 25 24 13 7 12 15 17 11 14 13 14 11 3 5 3 6 4 11 10 10 5 4 5 11 11 12 1 11 8 8 10 9 6 3 5 12 13 12 9 9 15 2 13 11 13 12 12 12 15 14 12 10 10 3 3 4 9 13 13 9 7 4 3 2 6 4 4 10 13 9 7 11 12 13 14 11 7 6 9 10 11 11 10 11
17 21 24 25 24 26 14 9 10 17 13 10 13 14 10 11 5 4 5 3 4 4 4 11 5 7 6 14 13 9 7 2 5 8 5 6 2 2 9 11 8 9 7 12 11 2 2 8 16 14 12 13 10 11 8 11 12 8 2 1 3 4 6 8 5 5 4 5 11 9 6 8 19 8 7 5 12 14 10 10 14 12 10 8 8 9 10 11
21 21 22 20 16 16 14 10 12 9 9 13 16 13 10 11 6 8 6 5 3 3 5 5 13 13 16 16 13 14 12 5 2 3 6 7 8 0 2 2 4 6 7 7 10 5 1 2 6 8 12 10 9 8 11 13 9 4 3 1 2 1 3 4 4 4 2 11 14 11 11 10 14 8 8 6 8 8 7 7 9 11 11 11 8 8 12 12
20 24 22 19 14 12 13 14 12 8 13 14 19 15 12 7 8 8 9 5 3 2 7 9 8 18 17 18 12 12 11 8 7 9 9 6 9 8 2 3 1 1 4 8 9 10 5 3 1 3 3 3 5 7 9 8 5 8 4 7 2 4 6 2 1 4 7 12 13 10 10 12 14 4 3 9 7 6 8 7 10 11 8 8 8 10 9 5
19 18 21 17 13 9 14 15 14 9 12 16 19 16 13 10 4 9 5 6 4 8 13 11 13 14 18 15 12 15 14 10 7 9 9 8 9 11 11 8 10 9 10 7 9 7 11 12 4 3 4 4 8 5 2 4 7 10 9 9 10 4 4 7 2 9 11 14 3 9 9 11 21 16 5 7 2 3 1 0 1 1 5 7 7 6 5 5
18 21 26 17 13 12 14 5 9 11 12 18 16 14 10 8 11 5 2 8 3 12 7 15 18 20 19 20 13 15 13 15 11 9 10 8 8 9 9 8 8 9 5 9 7 7 4 8 9 4 1 3 5 11 5 4 10 11 13 11 11 9 8 10 10 4 5 6 4 1 9 14 4 11 14 20 17 4 5 2 3 5 7 6 5 4 4 5
18 20 15 16 13 11 8 10 10 16 18 14 12 9 10 9 6 7 7 5 5 5 13 12 16 14 19 13 13 14 12 8 12 9 12 4 8 8 10 11 9 11 3 6 11 9 8 9 12 11 8 10 8 9 13 8 12 12 8 13 12 9 4 8 7 12 12 10 3 7 3 5 9 5 6 14 13 15 10 8 6 6 1 1 2 1 2 1
22 17 13 13 13 11 12 10 13 19 14 14 12 14 15 8 5 14 4 3 2 10 10 13 16 16 12 9 8 12 8 9 11 10 11 9 9 7 9 10 12 6 5 4 4 4 13 8 6 21 6 13 12 9 7 4 4 6 7 9 9 13 3 8 2 4 4 3 4 6 8 2 7 5 5 2 4 6 7 7 6 5 5 5 5 5 6 6
15 11 13 10 14 13 13 11 16 16 13 12 10 7 14 8 8 5 6 6 6 10 15 13 12 13 11 7 7 11 12 4 11 8 6 8 5 8 6 5 11 13 8 10 4 5 5 11 8 12 11 17 19 13 8 11 10 6 5 10 12 4 7 3 3 3 3 1 7 3 6 10 9 15 12 7 2 7 8 12 11 10 11 9 10 8 6 6
10 11 8 9 10 11 10 12 13 15 14 12 10 9 6 1 2 14 9 13 8 14 17 15 10 10 11 10 9 13 11 4 10 9 6 6 6 8 6 7 10 12 11 8 5 2 4 5 8 12 9 8 13 14 8 16 2 6 7 10 4 5 3 4 5 2 4 5 4 7 11 10 5 10 7 17 13 10 10 10 12 13 9 9 7 6 6 6
9 7 6 9 12 11 12 11 17 12 11 12 8 5 2 6 4 9 5 5 5 7 10 11 7 9 11 12 13 17 14 12 12 11 6 12 3 11 10 7 13 14 16 11 4 2 1 4 2 12 17 12 9 8 2 7 4 8 7 7 10 4 3 1 1 8 4 7 4 7 9 11 8 10 1 4 13 11 10 8 9 8 8 9 8 11 7 4
6 6 3 8 8 14 11 17 14 14 10 7 9 8 3 1 3 9 10 8 6 14 14 6 10 9 14 13 12 13 16 13 14 12 11 7 7 13 16 9 9 14 14 14 8 2 3 3 2 5 6 7 8 12 13 11 10 4 6 2 2 3 1 10 10 1 5 8 4 10 9 9 9 9 8 6 3 5 5 7 9 11 10 11 8 1 7 8
6 6 5 9 12 13 14 15 13 12 7 10 10 4 7 5 6 8 9 9 8 9 4 8 5 10 12 8 13 13 13 13 13 7 9 6 8 7 14 13 6 11 12 14 9 4 0 1 4 1 5 5 9 8 13 15 14 7 4 3 4 3 1 2 1 6 3 4 9 7 9 3 5 6 8 10 13 6 12 13 11 9 7 3 7 6 4 4
4 3 2 12 13 14 18 13 12 11 8 3 4 4 10 6 5 7 9 9 4 4 2 6 10 10 12 12 9 8 8 10 8 7 7 4 12 5 9 13 11 14 11 12 11 6 3 3 7 3 4 7 1 2 2 7 12 12 11 11 11 10 5 7 6 3 3 2 3 5 14 2 0 3 2 2 4 11 13 11 10 7 5 8 5 5 5 4
9 7 4 14 19 18 18 15 6 2 3 10 9 3 5 3 0 7 10 8 4 2 3 2 4 4 7 8 12 13 8 10 10 8 7 8 11 8 6 13 11 8 11 10 10 9 5 2 2 5 2 6 1 1 2 6 2 5 11 11 11 9 5 8 8 5 2 8 3 4 5 7 1 1 2 1 3 7 4 6 9 7 6 7 6 5 4 4
8 2 4 19 19 21 14 11 7 4 4 1 6 4 3 7 5 5 10 8 4 2 1 2 6 6 6 5 10 7 12 8 13 10 10 13 7 8 6 15 11 8 11 5 6 2 9 1 2 4 1 2 3 1 5 6 4 2 0 1 9 10 12 10 8 2 6 4 6 5 8 7 1 1 1 3 5 7 8 7 10 9 6 5 6 4 4 4
4 2 3 15 20 16 13 10 9 7 4 3 6 1 2 6 5 3 3 6 4 3 4 3 5 4 4 4 8 11 11 4 8 7 6 6 5 9 6 12 15 7 11 6 9 11 6 4 5 4 2 2 1 2 1 0 2 1 2 4 4 5 10 2 2 2 2 8 7 7 12 8 3 1 2 3 6 7 7 6 6 7 5 5 4 4 3 2
5 2 2 11 13 14 14 3 10 12 7 11 8 5 4 5 8 7 6 8 3 1 3 2 4 5 3 3 7 6 10 4 4 9 3 5 2 0 6 9 11 5 7 7 8 9 7 4 9 10 11 9 9 12 12 10 9 3 1 3 6 6 5 3 9 4 10 8 13 9 8 9 2 3 3 2 6 6 6 6 6 6 5 4 4 3 2 1
2 4 2 6 7 9 1 3 1 8 13 11 11 8 9 6 4 4 8 1 1 3 2 2 2 3 4 6 7 8 10 5 3 6 8 5 3 1 4 4 12 3 6 8 11 9 2 2 7 10 12 12 8 4 2 4 4 4 3 9 10 12 12 10 0 4 10 3 12 9 9 9 5 1 0 2 4 6 5 5 6 6 5 5 4 2 0 1
1 0 4 3 4 4 5 1 2 3 7 12 9 7 9 8 7 3 4 2 3 4 2 2 3 6 4 8 7 6 8 3 1 6 9 5 2 2 5 8 3 6 8 7 9 3 1 4 8 6 13 11 10 5 1 3 2 5 11 11 11 12 13 14 12 7 6 3 10 4 5 8 14 5 4 2 5 5 4 4 4 4 4 4 2 1 2 1
1 1 4 2 1 8 5 5 5 5 4 11 4 8 12 11 11 8 3 0 3 3 5 0 3 4 6 7 6 5 8 4 3 4 7 4 4 1 3 3 2 4 6 2 2 1 5 7 8 6 10 8 9 8 5 1 1 4 9 7 8 11 11 14 13 13 7 9 8 2 2 4 10 3 3 2 0 3 2 1 1 1 1 3 3 2 2 4
3 3 3 1 2 7 16 14 15 11 7 12 2 9 8 12 13 7 4 5 6 7 7 7 9 7 7 5 6 5 10 8 7 3 4 4 6 4 3 2 2 3 2 3 5 2 0 3 2 3 6 7 7 8 6 7 6 3 4 5 7 7 11 12 13 12 13 13 11 12 8 12 12 8 4 5 3 3 3 1 3 3 1 3 4 3 2 3
2 2 2 2 2 4 6 11 11 10 7 11 5 8 9 12 14 7 2 7 7 8 7 5 7 8 7 8 6 5 8 2 4 5 3 6 4 3 3 2 3 3 2 2 2 2 4 3 5 1 1 7 8 7 7 7 8 12 8 6 5 5 7 9 8 9 8 8 10 11 12 15 13 9 9 10 8 4 8 13 8 4 3 4 4 3 4 4
2 2 3 7 4 2 5 10 11 11 7 6 4 6 8 10 11 7 3 4 6 7 9 10 5 7 6 7 7 5 5 4 11 8 5 7 7 4 5 2 7 5 3 3 3 1 3 1 3 2 4 8 7 7 8 8 9 12 12 9 8 7 7 6 10 8 9 11 9 9 11 14 14 12 7 13 14 14 14 15 15 6 2 5 4 4 4 4
1 1 1 5 3 3 5 7 9 9 9 11 10 11 11 16 11 8 3 2 2 2 4 5 6 7 4 7 9 5 1 2 5 8 9 6 3 5 5 3 11 10 8 7 3 5 5 3 3 3 7 9 11 5 5 7 5 11 14 13 13 13 14 12 13 12 14 10 11 13 15 13 15 9 6 13 17 16 13 11 11 13 7 1 2 6 6 5
Wind_Direction
261 259 251 250 249 250 252 242 238 239 244 243 240 240 239 239 237 228 221 222 234 258 282 293 305 304 307 307 317 313 304 266 258 241 231 235 245 107 15 38 54 34 347 283 274 270 266 244 232 232 225 202 206 216 206 187 239 201 217 201 259 256 257 268 266 15 124 117 149 159 193 154 133 169 115 84 140 233 135 213 124 83 64 111 122 125 121 123
256 255 253 246 245 243 250 247 238 235 238 244 238 237 237 238 238 235 226 219 219 232 254 284 292 301 308 312 315 325 300 275 269 264 248 246 219 229 215 190 122 62 352 254 246 239 252 246 225 217 217 227 136 240 128 212 163 213 240 226 244 227 255 255 149 53 0 82 105 122 243 298 104 165 148 181 179 193 184 189 154 156 112 111 131 126 135 145
258 254 255 252 246 244 237 248 240 235 235 237 240 235 233 236 239 238 233 222 216 220 236 260 283 296 304 319 316 324 308 278 275 257 257 240 242 217 214 176 184 153 232 245 236 250 246 260 252 216 212 247 168 214 151 222 162 213 264 241 231 262 289 25 37 64 60 314 130 140 84 289 104 106 134 227 241 169 203 181 177 187 160 158 151 151 145 156
260 257 254 251 250 246 243 242 247 239 233 234 235 236 231 231 237 239 236 229 219 211 222 241 273 293 299 314 353 308 282 291 269 272 243 230 221 217 206 194 181 199 232 260 271 262 262 267 272 241 221 222 218 208 180 196 169 158 216 242 260 184 10 254 158 116 71 13 33 86 93 236 128 111 159 179 261 246 200 204 178 203 177 163 160 158 155 158
258 259 254 254 250 249 244 242 237 240 233 235 234 234 229 226 231 235 235 230 224 217 213 231 248 275 296 310 307 100 245 309 286 168 18 317 215 204 197 194 190 208 220 248 259 260 268 261 250 243 225 224 231 231 206 202 197 294 226 225 253 284 276 339 63 43 66 47 303 74 229 97 77 68 205 255 229 11 56 49 63 60 72 148 151 159 161 164
257 257 256 254 250 249 244 242 241 238 239 230 234 233 230 222 225 228 231 230 225 217 215 218 226 241 273 293 239 169 177 222 41 54 312 333 288 198 192 188 191 206 223 234 244 244 237 250 247 222 207 239 211 229 186 223 170 230 247 270 264 268 283 34 57 40 13 245 243 235 351 106 205 273 182 223 235 153 130 75 80 62 87 137 146 149 173 172
255 253 253 253 251 247 247 242 236 234 234 233 229 233 230 225 223 223 226 228 224 215 205 208 212 204 200 275 216 223 221 270 64 349 265 300 283 208 186 181 173 190 221 226 229 230 223 233 238 217 212 223 233 229 233 191 218 232 243 214 228 260 268 345 95 186 358 305 267 31 222 295 241 244 141 212 212 287 355 104 74 95 110 135 143 163 178 183
255 251 250 251 248 244 245 239 237 239 237 236 226 228 228 226 222 218 219 223 223 215 201 196 202 197 152 236 198 227 234 231 241 53 31 354 287 186 165 168 174 190 211 220 211 220 216 218 216 214 232 216 198 227 226 232 219 230 226 247 269 231 218 226 118 111 176 262 31 323 297 250 233 258 67 263 269 262 225 134 131 124 124 155 154 172 180 187
257 255 247 247 241 239 241 240 238 234 235 233 233 225 233 225 221 216 215 216 221 216 204 193 192 172 117 230 225 237 237 232 269 280 339 357 101 141 153 175 186 192 205 223 228 217 220 215 224 219 212 220 237 241 222 238 219 224 230 202 252 268 147 272 171 167 214 211 144 255 243 256 264 73 245 253 261 250 271 194 137 147 165 169 189 177 183 187
254 256 250 245 241 236 236 237 236 232 233 225 225 228 229 226 220 217 215 212 214 217 207 195 178 157 151 202 224 236 320 100 234 245 259 83 124 154 173 186 182 195 200 213 232 224 213 215 223 219 265 272 232 235 249 229 255 211 228 207 237 248 227 180 249 223 193 220 187 222 241 247 233 122 245 205 231 227 228 212 171 187 187 192 186 189 183 190
255 254 255 246 243 231 235 238 235 230 229 225 213 226 224 225 221 215 212 210 208 212 210 196 167 157 214 204 220 231 51 297 27 56 182 129 145 185 183 190 183 196 205 212 230 233 229 246 227 265 258 242 279 251 234 250 231 244 219 219 224 238 252 220 195 225 207 214 207 243 254 256 246 141 232 257 58 65 131 193 209 196 204 216 199 185 181 189
251 252 254 249 238 229 229 235 235 231 226 221 217 222 219 218 214 215 209 207 206 207 206 197 171 187 217 233 230 226 314 28 258 33 204 141 157 213 201 199 182 193 194 210 218 241 238 238 307 282 239 116 243 321 251 236 257 249 229 253 255 245 236 244 222 177 189 244 170 206 261 246 231 235 205 227 265 221 202 232 215 193 193 208 214 197 177 186
251 248 247 247 246 234 226 230 233 229 225 227 216 222 226 215 207 210 208 206 206 206 204 190 181 205 220 237 241 253 270 7 341 293 95 4 98 194 212 217 180 203 201 215 215 239 275 21 15 313 312 287 208 220 322 290 220 267 249 248 255 248 243 223 233 211 205 216 193 112 256 221 227 234 220 205 223 233 238 225 227 240 232 212 200 205 198 181
252 249 246 242 238 232 232 229 229 226 222 223 219 210 218 222 205 205 204 204 198 205 200 191 185 207 220 248 229 174 235 214 274 249 165 19 113 185 320 240 183 204 219 229 241 216 257 29 356 329 290 272 239 56 258 180 210 207 232 249 228 231 237 206 208 193 224 176 196 155 242 248 238 223 214 213 210 217 230 234 239 238 231 230 213 209 206 198
250 247 246 243 239 234 233 227 230 230 223 221 218 206 216 218 213 202 198 199 199 196 197 177 192 182 230 262 257 251 60 249 215 215 153 177 115 133 236 278 225 214 211 227 231 190 36 24 5 286 270 255 283 250 236 236 180 205 198 223 219 228 218 232 205 193 207 190 196 172 244 253 249 255 307 185 188 206 226 232 229 227 228 230 224 207 208 213
246 244 242 242 237 231 226 223 226 228 221 221 214 196 206 210 212 201 195 193 193 189 185 189 189 215 270 246 228 129 192 199 214 204 159 181 188 158 157 173 24 245 230 203 236 197 144 73 250 267 270 263 239 221 199 218 220 201 215 218 214 209 235 253 222 211 194 203 195 186 232 156 225 222 229 174 178 197 214 214 218 221 226 228 226 219 212 209
245 241 240 240 236 227 228 224 222 224 219 220 214 197 203 205 214 201 191 189 183 182 180 182 184 184 229 135 56 202 185 202 173 202 180 181 196 141 140 89 216 213 240 196 210 179 160 202 120 274 250 251 201 217 199 215 212 207 201 233 222 214 199 230 193 228 191 196 188 195 229 240 281 296 261 183 187 189 213 226 226 226 229 230 230 230 219 213
243 240 237 235 230 230 231 226 225 219 210 211 205 187 199 206 201 201 191 185 160 181 196 307 194 162 263 258 225 195 196 179 191 188 197 167 173 150 141 168 143 205 215 195 154 193 167 197 183 214 191 227 210 203 205 210 200 191 192 217 227 243 236 231 184 204 197 180 204 193 222 233 235 240 258 257 181 186 216 217 228 236 235 237 237 227 228 229
240 238 236 231 229 223 226 220 222 218 209 206 204 190 201 190 176 233 186 173 150 145 187 192 177 191 197 219 212 239 190 182 180 187 184 172 177 147 164 17 167 163 190 165 170 192 171 202 187 201 208 199 210 207 214 215 191 216 203 208 216 226 225 235 236 137 166 187 211 223 230 229 220 233 239 243 239 208 215 221 226 229 233 237 236 228 229 229
234 236 232 227 228 219 218 217 218 216 211 206 200 179 183 151 148 180 196 184 202 195 202 180 190 197 62 357 185 197 323 158 178 195 176 164 155 172 177 184 192 196 166 178 151 202 158 190 192 198 207 202 208 219 220 225 254 236 227 228 216 216 233 233 230 195 185 198 214 222 238 249 249 226 219 225 230 243 245 241 235 218 220 229 241 249 243 233
229 230 227 225 226 214 214 215 216 212 209 199 195 191 202 155 145 180 179 205 204 208 207 173 202 206 73 336 130 163 155 160 190 184 178 139 148 146 190 178 209 211 185 164 150 161 194 201 210 206 203 195 199 210 220 226 231 247 252 233 235 219 229 220 232 166 178 191 228 215 235 236 241 248 249 248 238 231 227 233 236 241 229 217 221 230 236 240
226 224 225 224 215 206 214 222 214 213 207 195 191 200 182 176 138 118 155 187 222 227 237 221 181 224 308 0 6 70 159 165 203 188 143 154 167 179 174 193 203 213 168 148 116 160 198 209 211 206 198 205 205 204 220 226 231 233 241 253 252 236 237 225 220 199 172 191 236 272 282 265 251 245 235 231 234 239 236 234 237 230 233 235 224 222 225 225
224 218 221 219 209 208 210 219 215 205 201 194 197 201 198 172 287 134 155 133 207 212 230 232 185 197 215 133 354 307 166 178 182 192 173 172 169 201 160 187 208 213 181 173 163 161 198 223 217 199 201 208 212 202 204 221 237 232 226 237 239 252 226 228 216 248 222 195 163 190 244 258 261 260 261 253 248 245 237 237 238 230 233 232 233 227 223 220
222 215 217 215 203 203 203 212 214 203 205 197 205 205 169 155 201 179 170 187 169 192 210 215 200 199 206 189 177 208 183 181 180 183 163 183 179 175 197 186 204 214 197 189 184 181 200 207 185 201 209 208 209 205 205 205 221 227 237 232 236 227 245 250 264 214 230 241 193 333 283 269 255 260 258 252 246 244 239 243 242 238 233 234 237 239 232 233
215 212 211 210 200 196 202 206 209 207 190 201 214 211 156 156 198 199 187 188 193 199 186 245 230 235 221 103 159 183 194 278 239 157 171 190 170 163 209 181 196 215 204 203 203 207 219 138 163 199 205 201 207 210 209 198 221 222 224 231 245 218 241 259 259 317 315 285 183 158 292 262 227 233 238 238 233 232 231 236 236 234 234 232 235 235 235 238
215 206 207 201 191 196 197 206 212 197 195 203 194 172 173 163 203 205 238 239 216 159 144 209 131 217 130 192 142 162 161 225 207 180 161 191 185 178 154 212 177 210 195 194 208 217 215 177 184 198 195 196 205 215 209 199 215 211 209 205 228 255 259 248 260 156 251 231 196 162 216 277 140 252 237 251 231 231 223 230 238 235 235 233 232 232 231 231
212 208 203 202 193 188 191 217 179 186 200 210 183 149 167 157 195 183 210 227 239 168 169 153 174 204 171 162 156 147 206 209 138 159 175 179 190 181 190 183 180 244 200 153 210 221 177 187 196 199 197 193 197 211 210 201 206 228 164 187 199 222 236 241 245 234 259 322 278 267 215 272 275 238 238 249 265 267 238 226 226 223 221 222 224 225 226 227
209 206 203 201 191 183 207 180 179 194 205 177 157 156 149 171 159 45 249 192 243 129 175 164 214 152 186 152 165 181 276 136 179 188 174 176 173 300 249 195 194 183 181 173 214 93 189 183 195 193 201 200 208 204 197 205 213 213 180 179 199 200 217 226 221 234 242 310 258 234 271 278 260 260 197 232 248 240 241 246 249 224 216 215 217 218 221 225
218 209 204 200 192 187 197 199 188 202 192 153 142 152 152 146 141 174 204 190 235 99 119 145 111 133 123 155 172 196 215 146 184 144 107 20 335 148 201 222 210 188 175 196 213 145 328 208 199 190 193 209 206 201 186 193 220 215 27 328 264 208 198 206 208 200 241 234 245 223 190 249 271 256 243 206 222 237 238 228 240 242 236 229 216 212 218 228
205 213 206 186 177 189 198 194 214 191 151 153 147 145 136 139 114 201 201 231 125 189 217 138 180 160 157 165 172 188 202 190 102 117 137 156 196 31 310 4 227 197 194 209 229 229 163 36 1 195 207 208 199 192 189 198 220 94 134 352 334 290 209 189 185 172 203 238 237 214 201 217 277 249 231 198 223 225 213 228 231 231 229 231 217 204 218 224
202 205 201 180 193 192 184 205 202 181 161 161 145 146 134 168 189 178 208 205 105 135 112 174 160 148 161 158 166 189 200 187 143 171 172 155 176 187 170 161 356 127 227 207 224 231 218 90 45 272 313 214 183 193 191 200 187 153 157 169 60 326 15 22 287 162 218 243 235 201 202 209 240 276 189 222 227 194 194 207 218 215 214 213 222 223 227 206
203 199 204 195 190 167 190 201 179 160 168 151 151 154 157 178 235 203 167 139 141 189 153 154 165 157 161 157 167 178 184 190 168 187 177 176 173 186 195 186 163 180 206 181 211 179 222 215 175 175 351 207 187 178 208 166 157 169 130 149 172 192 142 225 142 221 210 230 199 180 182 237 231 244 304 320 71 23 296 182 82 101 184 205 226 234 226 214
207 198 196 196 183 184 204 173 141 148 162 159 155 160 170 183 201 165 129 166 245 160 184 167 165 171 161 169 177 173 181 195 164 187 180 182 185 205 202 204 180 197 188 191 214 181 237 212 201 190 318 239 208 177 156 161 180 166 169 169 175 190 183 210 206 236 261 251 258 348 192 235 262 273 219 245 259 263 270 267 227 224 214 208 202 221 217 196
205 213 201 194 190 200 164 163 164 145 160 157 152 162 185 197 192 132 166 163 201 163 159 166 159 160 167 176 175 165 177 207 174 189 179 169 190 192 203 212 198 199 252 157 200 183 213 203 209 172 217 158 207 198 183 176 175 187 169 179 186 183 171 203 196 208 213 230 183 205 325 221 163 221 171 222 209 212 195 199 222 257 342 68 87 71 60 108
200 207 205 186 193 196 179 174 152 155 150 157 167 180 194 181 128 160 199 181 151 154 153 157 152 156 175 182 173 178 170 181 187 174 195 175 192 196 189 197 206 211 200 223 191 195 224 252 164 191 173 163 179 197 174 147 177 210 184 173 191 206 173 214 157 197 206 223 217 187 212 191 204 338 338 239 239 224 203 217 220 236 247 235 250 232 213 205
192 211 199 192 187 183 188 167 163 155 165 160 174 201 191 162 156 167 180 176 169 163 148 145 149 160 167 171 176 175 192 179 175 188 197 196 191 198 193 191 195 196 193 200 166 193 172 231 146 187 173 172 186 177 178 152 196 179 147 207 206 235 219 38 10 98 62 24 249 191 261 266 307 282 273 285 237 206 206 221 225 219 214 217 228 236 234 224
202 191 203 183 184 178 178 156 159 157 160 174 182 205 172 59 227 166 167 188 181 155 146 146 174 163 165 177 173 185 179 181 177 180 193 164 222 198 190 200 181 196 214 189 247 244 185 231 158 152 194 199 185 175 167 188 127 130 207 204 88 27 92 151 226 129 196 232 241 186 230 248 210 279 201 223 208 209 206 209 217 221 210 217 234 247 245 237
186 180 184 181 180 168 168 155 149 157 159 177 209 152 216 175 181 179 183 159 136 167 154 158 158 164 164 161 181 180 173 184 165 176 199 175 264 177 192 192 189 196 196 209 214 256 134 266 161 177 178 176 170 132 120 236 249 203 205 149 162 176 237 208 170 228 168 213 243 223 221 243 212 234 11 195 216 210 210 209 218 217 208 214 226 233 241 267
150 152 202 185 165 159 152 150 161 156 177 199 184 169 208 333 175 187 194 183 169 166 175 180 141 198 168 179 174 179 171 188 168 186 176 183 203 179 190 171 195 192 193 186 210 245 356 194 168 210 178 152 160 156 202 189 212 208 50 234 352 46 255 172 199 232 191 234 220 249 178 243 212 235 248 272 241 186 186 206 220 215 204 210 218 359 48 59
150 148 220 141 162 151 146 148 163 168 167 201 178 215 149 192 220 207 214 182 175 180 200 160 164 145 177 178 168 166 178 183 179 185 195 157 211 176 185 182 170 186 178 186 200 150 358 347 253 155 97 154 196 185 200 183 189 181 170 191 166 207 279 79 331 204 171 208 225 263 256 212 236 197 231 232 248 206 195 205 205 210 211 122 87 108 93 77
156 177 147 153 148 141 146 156 174 186 173 185 209 172 166 182 185 204 221 196 183 357 185 171 158 170 169 157 170 171 167 182 171 177 187 183 185 192 185 181 176 184 172 179 197 173 145 182 202 153 158 185 219 153 304 218 192 184 182 200 181 173 187 196 236 130 245 157 216 199 252 248 292 44 339 295 270 240 226 219 193 193 101 101 92 85 110 97
155 191 177 156 151 149 152 166 191 143 177 182 190 145 166 201 259 200 182 207 216 149 320 151 154 137 158 170 163 172 158 178 180 179 195 197 201 211 166 181 180 155 169 186 192 186 165 106 180 217 184 199 190 83 13 21 199 208 193 203 177 195 170 204 218 185 149 228 264 270 302 253 236 350 359 359 19 15 24 103 91 83 88 97 99 88 83 99
182 174 140 154 149 151 159 195 168 160 172 163 113 164 165 185 192 202 169 181 165 142 141 191 172 151 178 159 159 156 166 179 182 194 187 205 208 198 150 172 164 171 163 166 172 187 75 142 132 257 179 136 25 35 30 41 35 104 190 70 169 193 195 206 215 166 187 164 201 231 243 252 263 18 120 63 61 56 51 53 94 93 90 89 93 95 71 71
152 106 161 155 155 156 159 185 167 151 121 95 131 157 239 190 179 185 181 166 166 161 168 162 151 193 153 153 151 169 168 148 207 192 194 186 220 168 177 176 164 184 168 184 186 163 193 194 177 174 227 163 312 8 34 197 108 136 209 212 222 195 205 212 58 59 183 192 209 181 235 245 255 54 106 95 78 73 73 72 77 87 81 82 82 93 91 63
117 44 28 143 164 168 184 170 168 161 157 154 151 145 154 167 200 195 168 161 149 146 137 199 169 134 160 154 154 156 174 190 143 212 191 172 209 9 172 177 178 182 177 171 160 154 205 170 171 208 203 188 192 207 217 221 206 188 150 159 200 228 203 117 222 152 239 173 197 210 243 244 23 350 72 101 110 97 97 98 81 80 80 78 75 71 96 145
166 156 358 112 157 174 193 67 341 168 157 159 153 171 159 149 159 229 150 75 11 161 134 110 108 112 153 161 158 174 179 188 146 178 188 169 155 49 347 175 174 178 166 137 140 151 180 188 200 202 217 225 221 222 318 86 79 149 212 177 196 200 217 224 117 229 217 112 212 215 230 262 256 166 216 124 97 107 82 62 71 59 46 45 85 123 155 182
27 135 128 128 77 196 173 42 136 201 177 153 159 158 173 168 153 174 175 127 244 150 130 138 149 146 184 167 174 166 171 127 69 157 186 155 60 113 58 35 168 183 139 127 156 126 110 197 218 197 229 236 244 233 174 106 126 181 177 209 195 192 198 210 215 222 102 270 252 187 219 228 248 214 182 107 40 43 38 42 54 65 58 78 78 41 316 68
142 82 46 351 106 161 150 197 157 164 167 173 162 158 166 157 164 166 128 69 133 227 155 156 188 195 171 178 139 153 171 155 141 165 164 143 109 112 62 3 58 94 94 43 337 131 159 199 213 191 239 251 254 261 265 260 152 159 193 200 200 202 195 204 221 226 196 224 246 77 42 243 257 243 37 266 186 39 317 345 47 38 115 83 88 67 62 93
45 85 68 341 346 167 183 165 161 172 165 182 128 170 169 168 176 178 145 147 156 193 193 174 197 184 169 173 160 167 165 155 208 188 162 150 139 121 105 36 326 44 77 121 147 165 37 222 190 166 234 253 256 258 263 264 258 248 195 200 202 197 211 210 223 226 215 229 232 224 197 225 232 230 221 256 266 301 300 333 335 298 212 100 115 100 79 83
150 145 134 22 51 66 103 134 160 157 174 188 170 190 178 183 179 149 121 155 165 204 177 208 174 182 183 190 188 185 190 179 113 147 169 125 132 140 150 148 151 119 157 100 62 264 172 241 178 120 267 263 257 248 246 240 247 254 242 229 208 185 205 220 232 246 247 251 244 248 242 251 248 250 261 268 263 285 298 289 270 267 318 77 104 105 88 75
88 37 128 121 107 90 98 142 156 167 171 180 216 178 190 186 194 165 137 169 171 171 180 198 142 172 189 194 208 215 152 166 145 172 172 145 164 175 124 233 129 144 131 120 136 313 134 271 70 100 240 264 248 237 231 230 232 238 245 236 231 228 226 202 216 213 220 225 226 238 247 252 262 243 235 258 262 256 250 251 268 267 128 104 115 135 128 129
48 196 190 121 82 140 137 152 152 156 188 188 190 176 187 186 181 149 119 181 178 134 158 165 177 152 186 192 204 195 111 212 165 175 181 178 141 145 179 153 150 151 170 175 136 121 160 161 150 148 233 245 256 215 219 222 235 246 232 228 224 225 228 229 228 217 220 206 223 223 234 234 242 251 215 240 239 237 237 240 240 243 211 151 164 169 182 177